{"data":{"norad_id":61739,"intl_designator":"2024-199E","name":"SITRO-AIS 21","alt_names":[],"object_type":"PAYLOAD","status":"ACTIVE","operator":null,"country":"CIS","launch_date":"2024-11-04","launch_site_code":"VOSTO","launch_vehicle":null,"mission":null,"orbit_class":"UNKNOWN","rcs_meters":null,"size_class":null,"mass_kg":null,"dimensions":null,"purposes":[],"wikipedia_slug":null,"has_3d_model":false,"image_url":null,"decayed_at":null,"tle_current":{"epoch":"2026-09-22T21:45:40.078368Z","epoch_age_seconds":92118,"freshness":"FRESH","line1":"1 61739U 24199E   26265.90671387  .00001200  00000+0  11292-3 0  9993","line2":"2 61739  97.3218  97.2890 0014021  92.7684 267.5144 14.95493937146359","mean_motion":14.95493937,"eccentricity":0.0014021,"inclination_deg":97.3218,"raan_deg":97.289,"arg_perigee_deg":92.7684,"mean_anomaly_deg":267.5144,"bstar":0.00011292,"rev_number":14635,"period_min":96.289256972093,"perigee_km":571.08285722287,"apogee_km":590.59722063544,"semimajor_km":6958.9770389292,"source":"CELESTRAK","updated_at":"2026-09-23T09:00:21.023242Z"}}}